TimeEDT,TemperatureF,Dew PointF,Humidity,Sea Level PressureIn,VisibilityMPH,Wind Direction,Wind SpeedMPH,Gust SpeedMPH,PrecipitationIn,Events,Conditions,WindDirDegrees,DateUTC
12:53 AM,84.9,73.0,67,30.03,10.0,ENE,6.9,-,N/A,,Clear,70,2013-08-21 04:53:00
1:53 AM,84.9,75.9,74,30.02,10.0,East,8.1,-,N/A,,Clear,90,2013-08-21 05:53:00
2:53 AM,84.9,75.0,72,30.00,10.0,ENE,8.1,-,N/A,,Scattered Clouds,70,2013-08-21 06:53:00
3:53 AM,84.9,73.9,69,29.99,10.0,East,8.1,-,N/A,,Partly Cloudy,100,2013-08-21 07:53:00
4:53 AM,84.9,73.9,69,29.99,10.0,East,5.8,-,N/A,,Partly Cloudy,100,2013-08-21 08:53:00
5:53 AM,84.0,73.9,72,30.00,10.0,East,6.9,-,0.00,,Scattered Clouds,90,2013-08-21 09:53:00
6:53 AM,82.0,73.0,74,30.01,10.0,NE,13.8,-,N/A,Thunderstorm,Thunderstorm,50,2013-08-21 10:53:00
7:14 AM,82.4,73.4,74,30.01,10.0,NE,5.8,-,N/A,,Scattered Clouds,50,2013-08-21 11:14:00
7:53 AM,86.0,73.9,67,30.02,10.0,East,9.2,-,N/A,,Scattered Clouds,90,2013-08-21 11:53:00
8:53 AM,86.0,73.9,67,30.04,10.0,ENE,10.4,-,N/A,,Scattered Clouds,70,2013-08-21 12:53:00
9:53 AM,88.0,73.9,63,30.04,10.0,East,9.2,-,N/A,,Partly Cloudy,90,2013-08-21 13:53:00
10:53 AM,90.0,73.9,59,30.05,10.0,East,8.1,-,N/A,,Clear,90,2013-08-21 14:53:00
11:19 AM,84.2,75.2,74,30.06,1.8,ESE,10.4,17.3,0.04,,Haze,120,2013-08-21 15:19:00
11:23 AM,80.6,77.0,89,30.05,0.8,Variable,4.6,17.3,0.15,,Mostly Cloudy,0,2013-08-21 15:23:00
11:30 AM,82.4,78.8,89,30.05,1.0,ESE,5.8,-,0.15,,Mostly Cloudy,120,2013-08-21 15:30:00
11:33 AM,84.2,78.8,84,30.05,4.0,ESE,5.8,-,0.15,,Haze,110,2013-08-21 15:33:00
11:53 AM,87.1,78.1,74,30.05,10.0,East,8.1,-,0.15,,Clear,90,2013-08-21 15:53:00
12:53 PM,88.0,77.0,70,30.04,10.0,East,8.1,17.3,N/A,,Partly Cloudy,90,2013-08-21 16:53:00
1:53 PM,90.0,75.9,63,30.03,10.0,East,10.4,17.3,N/A,,Clear,90,2013-08-21 17:53:00
2:53 PM,90.0,75.9,63,30.01,10.0,East,9.2,17.3,N/A,,Partly Cloudy,90,2013-08-21 18:53:00
3:53 PM,89.1,77.0,67,29.99,10.0,ESE,10.4,17.3,N/A,,Scattered Clouds,120,2013-08-21 19:53:00
4:53 PM,89.1,75.9,65,29.97,10.0,ESE,10.4,18.4,N/A,,Partly Cloudy,110,2013-08-21 20:53:00
5:53 PM,86.0,75.9,72,29.96,9.0,East,11.5,19.6,N/A,,Mostly Cloudy,90,2013-08-21 21:53:00
6:53 PM,86.0,75.0,70,29.96,10.0,East,12.7,21.9,N/A,,Partly Cloudy,100,2013-08-21 22:53:00
7:53 PM,84.9,75.0,72,29.99,10.0,ESE,9.2,19.6,N/A,,Clear,110,2013-08-21 23:53:00
8:53 PM,84.9,75.0,72,30.01,10.0,East,9.2,18.4,N/A,,Scattered Clouds,100,2013-08-22 00:53:00
9:53 PM,84.9,75.0,72,30.01,10.0,East,10.4,-,N/A,,Scattered Clouds,90,2013-08-22 01:53:00
10:21 PM,82.4,75.2,79,30.02,10.0,ENE,9.2,-,0.01,,Overcast,70,2013-08-22 02:21:00
10:32 PM,78.8,73.4,83,30.03,1.8,ESE,12.7,38.0,0.11,,Overcast,110,2013-08-22 02:32:00
10:39 PM,78.8,73.4,83,30.03,3.0,East,13.8,29.9,0.13,Thunderstorm,Unknown,80,2013-08-22 02:39:00
10:53 PM,78.1,72.0,81,30.03,10.0,East,13.8,24.2,0.13,Thunderstorm,Thunderstorm,100,2013-08-22 02:53:00
11:08 PM,80.6,75.2,84,30.04,9.0,ESE,15.0,24.2,N/A,,Scattered Clouds,110,2013-08-22 03:08:00
11:53 PM,80.1,73.9,81,30.02,8.0,East,11.5,19.6,0.01,,Mostly Cloudy,100,2013-08-22 03:53:00